Location: Clatteringshaws Loch
(55.0508°N, 4.2860°W)
Time: 10:19:13
(UTC+00:00)

Daily predictions for brighter satellites

Satellite Brightness Start Highest point End
(mag) Time Altitude Azimuth Time Altitude Azimuth Time Altitude Azimuth
SL-08 R/B 4.5 18:06:53 10° S 18:12:59 70° E 18:19:12 10° NNE
Meteor 1-25 Rocket 4.4 18:10:18 10° SSE 18:15:44 50° E 18:21:15 10° NNE
Cosmos 2360 Rocket 2.2 18:12:51 10° NNW 18:18:33 78° NE 18:24:14 10° SE
ATLAS CENTAUR R/B 2.3 18:15:49 10° WSW 18:20:08 48° NNW 18:24:11 10° NE
Cosmos 2219 Rocket 2.9 18:15:03 10° NNW 18:20:10 35° NE 18:25:17 10° ESE
Nadezhda 1 Rocket 4.0 18:14:16 10° NNW 18:20:25 88° W 18:26:30 10° S
USA 186 3.7 18:20:06 10° ENE 18:20:37 10° ENE 18:21:09 10° NE
Cosmos 1818 4.5 18:21:45 10° S 18:26:22 29° ESE 18:31:01 10° ENE
Cosmos 1536 Rocket 3.6 18:22:42 10° N 18:27:11 68° ENE 18:31:38 10° SSE
CZ-2D R/B 4.4 18:25:03 10° ESE 18:28:06 23° ENE 18:31:10 10° N
Okean 1 3.3 18:24:48 10° N 18:28:54 81° ENE 18:32:58 10° SSE
Cosmos 407 Rocket 3.9 18:24:33 10° S 18:29:31 43° ESE 18:34:33 10° NE
Cosmos 1812 3.2 18:27:31 10° NNW 18:31:23 65° W 18:35:13 10° S
Cosmos 1536 4.3 18:29:17 10° ESE 18:31:44 16° E 18:34:13 10° NE
Cosmos 1570 Rocket 4.2 18:27:36 10° NNW 18:32:45 54° NE 18:37:53 10° SE
H-2A R/B 3.5 18:30:30 10° SE 18:33:48 30° ENE 18:37:09 10° N
SL-16 R/B 3.6 18:31:01 10° NNW 18:35:27 22° NNE 18:39:44 10° ENE
USA 229 DEB 3.8 18:28:52 10° NW 18:35:57 74° NE 18:43:10 10° ESE
USA 229 3.8 18:28:58 10° NW 18:36:03 74° NE 18:43:16 10° ESE
NOSS 5 (C) 4.3 18:34:38 10° SW 18:37:47 59° SE 18:40:50 10° NE
Cosmos 2181 Rocket 4.0 18:33:29 10° N 18:39:41 65° ENE 18:45:57 10° SSE
Cosmos 1633 3.4 18:38:27 10° SSE 18:41:42 30° E 18:44:57 10° NNE
RESURS DK-1 4.0 18:41:15 10° WSW 18:45:01 32° NW 18:48:49 10° NNE
NOSS 3-4 (A) 4.1 18:38:57 10° WSW 18:45:17 57° NNW 18:51:59 10° NE
NOSS 3-4 (C) 4.1 18:39:04 10° WSW 18:45:24 57° NNW 18:52:07 10° NE
NOSS 3-1 (A) 4.2 18:41:25 10° NW 18:48:13 54° NNE 18:55:05 13° E
NOSS 2-2 (E) 3.8 18:45:02 10° SW 18:49:23 84° SE 18:54:52 10° NE
Thor Agena Rocket 3.9 18:44:24 10° NNE 18:49:28 69° WNW 18:54:29 10° SSW
Cosmos 1140 Rocket 4.2 18:45:25 10° SSE 18:49:51 30° ESE 18:54:19 10° NE
DMSP B5D1-3 4.5 18:46:34 10° NNE 18:51:43 71° ESE 18:56:52 10° S
Cosmos 2333 Rocket 2.7 18:47:31 10° NNW 18:53:01 44° NE 18:58:02 12° ESE
ATLAS 2AS CENTAUR R/B 3.7 18:45:41 10° WNW 18:53:29 46° N 19:00:31 13° ENE
SL-16 R/B 4.1 18:49:39 10° NW 18:54:40 33° WSW 18:59:39 10° S
USA 215 3.3 18:50:28 11° ENE 18:56:50 89° NNW 19:03:23 10° WSW
Cosmos 1190 Rocket 3.9 18:51:40 10° SSW 18:56:50 75° ESE 19:02:04 10° NNE
Cosmos 2082 Rocket 3.6 18:51:46 10° WSW 18:57:01 36° NW 19:02:19 10° NNE
Cosmos 2208 Rocket 4.1 18:53:57 10° NNW 18:59:27 75° ENE 19:04:54 10° SSE
Resurs 01 Rocket 1.6 18:55:54 10° SSE 19:00:16 66° ENE 19:04:40 10° N
COSMO-SKYMED 1 2.9 18:55:58 10° NNE 19:00:19 72° WNW 19:04:39 10° SSW
Cosmos 1980 4.2 18:56:02 10° NNW 19:01:25 42° NE 19:05:37 16° ESE
Cosmos 1709 Rocket 3.9 18:56:58 10° S 19:03:05 67° E 19:09:12 10° NNE
Spot 1 4.3 18:59:25 10° SE 19:03:18 44° ENE 19:07:20 10° N
Cosmos 1300 Rocket 3.8 18:59:07 10° SSE 19:03:22 48° E 19:07:39 10° NNE
Spot 2 Rocket 3.4 18:59:54 10° SSE 19:04:56 72° ENE 19:10:02 10° NNW
ALOS 2.2 19:00:47 10° SSE 19:05:28 87° ENE 19:10:11 10° NNW
Cosmos 1602 3.8 19:03:24 10° S 19:07:10 52° E 19:11:01 10° NNE
NOSS 3-1 (C) 4.0 19:01:12 10° NW 19:08:12 65° NNE 19:14:38 17° ESE
NOSS 2-2 (D) 3.8 19:05:58 10° SW 19:10:18 82° NW 19:15:44 10° NE
FengYun 1-2 T 4.3 19:11:04 10° SSE 19:16:34 81° WSW 19:22:08 10° NNW
Nadezhda 3 Rocket 4.4 19:11:38 10° N 19:17:23 39° ENE 19:22:13 14° SE
Meteor 1-19 Rocket 4.5 19:11:57 10° NNW 19:17:36 75° W 19:23:19 10° S
Resurs 1-3 3.5 19:14:15 10° SSE 19:18:38 81° ENE 19:23:04 10° NNW
Cosmos 1340 3.9 19:15:02 10° NNW 19:18:41 44° W 19:22:18 10° S
Helios 1A 3.0 19:14:55 10° SSE 19:19:00 57° ENE 19:23:06 10° N
Envisat 3.5 19:17:55 17° ESE 19:21:21 40° ENE 19:26:05 10° N
Cosmos 1437 3.9 19:19:40 10° N 19:22:13 26° NE 19:22:13 26° NE
Cosmos 1954 Rocket 3.9 19:18:33 10° SSW 19:23:41 65° ESE 19:28:55 10° NNE
TSX-5 3.5 19:20:50 10° SSW 19:23:55 48° ESE 19:25:15 29° ENE
Helios 1B rocket 3.3 19:21:46 10° NE 19:29:15 - SSE 19:25:19 28° E
Cosmos 2285 Rocket 4.0 19:19:17 10° NNW 19:25:47 80° ENE 19:32:14 10° SSE
FENGYUN 3A 4.0 19:21:23 10° S 19:26:47 70° WSW 19:32:14 10° NNW
ERS-1 Rocket 3.8 19:25:26 25° E 19:27:15 32° ENE 19:31:42 10° N
NOSS 2-2 (C) 4.1 19:23:16 10° WSW 19:27:38 68° NNW 19:32:30 13° NE
Cosmos 1833 Rocket 4.5 19:23:36 10° W 19:28:26 28° NNW 19:33:17 10° NNE
Okean 2 3.4 19:26:06 10° N 19:30:14 58° ENE 19:33:20 17° SSE
Cosmos 1892 Rocket 3.6 19:30:59 10° N 19:35:16 52° ENE 19:37:33 25° SE
H-2A R/B 4.2 19:37:27 12° NE 19:37:27 12° NE 19:38:31 10° NNE
Cosmos 1238 Rocket 4.2 19:34:06 10° NNW 19:36:55 30° W 19:39:33 10° SSW
Okean 1 Rocket 3.0 19:33:16 10° S 19:37:45 76° E 19:42:15 10° NNE
GEOS 3 Rocket 4.1 19:36:20 26° ENE 19:38:36 38° SE 19:43:30 10° SSW
SPOT 5 4.1 19:41:00 25° ENE 19:41:26 25° NE 19:45:32 10° N
Meteor 1-23 Rocket 4.4 19:35:46 10° NNW 19:41:38 80° W 19:47:24 10° S
H-2A R/B 3.7 19:41:52 18° NE 19:42:16 18° NE 19:45:50 10° N
COSMOS 2428 3.2 19:36:58 10° NW 19:42:35 61° WSW 19:48:11 10° SSE
Aureole 2 Rocket 3.9 19:40:15 10° N 19:42:51 23° NE 19:42:51 23° NE
Meteor 2-4 Rocket 4.1 19:39:00 10° NNW 19:44:35 64° W 19:49:58 10° S
CZ-4B DEB 2.5 19:46:09 69° ESE 19:46:20 72° ENE 19:49:28 10° N
SAR-Lupe-1 4.2 19:43:22 14° S 19:46:21 76° WSW 19:49:57 10° NNW
Cosmos 2237 Rocket 2.2 19:41:43 10° NNW 19:47:27 68° NE 19:50:18 30° SE
USA 186 1.6 19:50:23 60° S 19:50:51 79° W 19:53:44 10° NNW
SL-08 ROCKET BODY 4.4 19:44:58 10° S 19:51:08 75° E 19:57:20 10° NNE
Cosmos 1025 Rocket 3.3 19:46:49 10° NNW 19:51:11 68° W 19:55:32 10° S
SAR-Lupe-4 4.1 19:47:39 10° S 19:51:11 58° WSW 19:54:45 10° NNW
NOSS 0 Rocket 3.9 19:46:00 10° NW 19:52:14 89° SW 19:56:15 23° SSE
Cosmos 1515 3.8 19:51:40 10° N 19:55:21 53° ENE 19:55:21 53° ENE
CZ-4B DEB 4.5 19:54:30 40° SSE 19:55:42 88° WSW 19:59:18 10° NNW
Cosmos 405 Rocket 2.7 19:53:28 10° NNW 19:57:35 86° ENE 19:59:12 36° SSE
Cosmos 841 Rocket 3.6 19:54:22 10° NNW 19:59:26 52° NE 20:00:33 43° E
ATLAS CENTAUR R/B 3.3 19:56:32 10° WNW 19:59:59 23° N 20:01:52 17° NNE
Cosmos 1023 Rocket 4.4 19:55:41 10° SSW 20:00:48 88° WNW 20:06:00 10° NNE
Cosmos 1939 Rocket 2.7 20:01:17 62° E 20:01:31 64° ENE 20:05:29 10° N
Cosmos 2360 Rocket 4.3 19:57:31 10° NW 20:02:02 25° WSW 20:06:33 10° SSW
CZ-2D R/B 4.2 19:58:36 10° S 20:02:17 47° W 20:06:01 10° NNW
Cosmos 2219 Rocket 2.4 19:59:00 10° NW 20:04:35 69° WSW 20:08:16 22° SSE
ARGOS 3.9 20:04:57 33° ENE 20:05:09 33° ENE 20:09:56 10° N
Cosmos 1741 Rocket 3.8 20:01:40 10° SSW 20:06:52 70° ESE 20:12:05 10° NNE
Cosmos 1536 3.1 20:03:45 10° SSW 20:07:43 67° WNW 20:11:43 10° N
H-2A R/B 4.5 20:04:41 10° SSW 20:08:04 32° W 20:11:31 10° NNW
Cosmos 1818 3.6 20:04:04 10° SW 20:09:32 78° NW 20:13:03 23° NE
Cosmos 2219 3.2 20:04:54 10° SSW 20:10:31 58° ESE 20:14:49 18° NE
Cosmos 1763 Rocket 3.3 20:08:00 10° NNW 20:13:08 73° ENE 20:14:14 54° SE
Cosmos 1602 Rocket 4.1 20:10:41 10° N 20:14:12 43° NE 20:14:12 43° NE
Meteor 1-11 Rocket 4.4 20:12:38 10° SSW 20:18:24 58° WNW 20:24:18 10° N
SL-16 R/B 2.3 20:15:07 10° NNW 20:20:46 59° NE 20:21:38 53° E
Cosmos 1626 Rocket 3.9 20:17:00 10° N 20:20:41 50° NE 20:20:41 50° NE
SPOT 1/Viking Rocket 4.4 20:22:51 34° NE 20:22:51 34° NE 20:26:53 10° N
Cosmos 1610 Rocket 4.3 20:16:37 10° S 20:22:49 79° E 20:29:01 10° NNE
Cosmos 332 Rocket 3.6 20:18:12 10° NNW 20:23:09 75° ENE 20:23:33 70° ESE
MetOp-B 4.2 20:24:01 54° ENE 20:24:15 54° ENE 20:29:29 10° N
Cosmos 540 Rocket 4.0 20:21:46 10° NNW 20:26:22 42° NE 20:26:22 42° NE
YAOGAN 6 4.3 20:29:59 26° N 20:29:59 26° N 20:31:42 10° N
Cosmos 1441 Rocket 3.7 20:26:57 10° NNW 20:30:07 56° NNW 20:30:07 56° NNW
Cosmos 1140 Rocket 4.1 20:26:20 10° SW 20:31:23 57° WNW 20:36:32 10° NNE
Meteor 2-8 Rocket 4.3 20:25:49 10° N 20:31:56 78° ENE 20:33:34 51° SSE
Cosmos 371 Rocket 3.2 20:29:40 10° NNW 20:34:23 72° NE 20:34:23 72° NE
Resurs 01 Rocket 4.2 20:33:55 10° SW 20:37:11 20° W 20:40:28 10° NW
Cosmos 2333 Rocket 2.9 20:31:53 10° NW 20:37:27 51° WSW 20:40:05 29° S
NOAA 11 4.2 20:38:21 62° ENE 20:38:21 62° ENE 20:43:40 10° NNW
Cosmos 614 Rocket 4.4 20:34:30 10° SW 20:39:32 61° WNW 20:44:35 10° NNE
NOSS 3-1 (A) 4.0 20:32:27 10° NW 20:39:43 77° SW 20:42:33 44° SSE
USA 215 3.3 20:37:48 48° ENE 20:39:50 77° N 20:46:22 10° W
Cosmos 1980 4.3 20:40:13 10° NW 20:45:43 53° WSW 20:47:30 38° SSW
ATLAS 2AS CENTAUR R/B 3.2 20:37:43 10° NW 20:45:51 64° NNE 20:47:58 49° E
USA 32 4.0 20:41:27 10° N 20:46:43 78° W 20:47:27 65° SSW
Terra 3.6 20:58:52 21° NNE 20:58:52 21° NNE 21:00:53 10° N
Meteor 1-12 Rocket 4.2 20:58:38 80° ENE 20:58:38 80° ENE 21:04:19 10° NNE
NOSS 3-1 (C) 4.4 20:52:10 10° NW 20:59:16 56° SW 21:02:04 39° S
Envisat 4.1 20:58:07 26° SSW 21:00:23 41° W 21:05:13 10° NNW
Helios 1B rocket 3.6 20:56:54 10° N 21:00:51 42° WNW 21:01:47 36° W
ERS-1 Rocket 3.5 21:05:25 52° WSW 21:05:52 53° W 21:10:50 10° NNW
MetOp-A 4.3 21:10:28 71° WNW 21:10:28 71° WNW 21:15:33 10° NNW
H-2A R/B 4.0 21:14:34 23° N 21:14:34 23° N 21:16:14 10° N
Cosmos 2341 Rocket 4.0 21:12:34 60° SSW 21:13:50 82° WNW 21:20:18 10° N
GEOS 3 Rocket 3.9 21:17:28 63° WNW 21:17:28 63° WNW 21:22:09 10° WSW
SPOT 5 3.7 21:20:13 51° NW 21:20:13 51° NW 21:24:10 10° NNW
Cosmos 2154 Rocket 4.4 21:13:55 10° SSW 21:20:11 61° WNW 21:26:30 10° N
H-2A R/B 3.0 21:22:30 44° N 21:22:30 44° N 21:26:16 10° NNW
Cosmos 1727 Rocket 4.1 21:21:40 10° N 21:27:13 70° N 21:27:13 70° N
Cosmos 1603 4.3 21:24:29 10° NNW 21:28:46 50° NNW 21:28:46 50° NNW
Cosmos 2237 Rocket 3.7 21:26:16 10° NW 21:31:08 30° WSW 21:32:09 28° SW
ATLAS CENTAUR R/B 4.0 21:36:47 10° NW 21:38:10 17° NNW 21:38:10 17° NNW
ARGOS 4.1 21:46:28 45° NW 21:46:28 45° NW 21:50:33 10° NNW
Cosmos 2219 4.4 21:49:34 10° WSW 21:54:59 40° NW 21:57:02 30° N
SL-16 R/B 3.7 21:59:34 10° NW 22:03:32 32° W 22:03:32 32° W
USA 215 4.0 22:25:09 45° WNW 22:25:09 45° WNW 22:29:29 10° WNW
Cosmos 2082 Rocket 4.4 22:25:24 10° NNW 22:29:09 18° NNE 22:29:09 18° NNE
NOSS 3-4 (A) 4.5 22:22:49 10° NW 22:27:42 46° NNW 22:27:42 46° NNW
NOSS 3-4 (C) 4.5 22:22:56 10° NW 22:27:50 46° NNW 22:27:50 46° NNW
Terra 4.4 22:37:45 17° NNW 22:37:45 17° NNW 22:38:57 10° NNW
ATLAS 2AS CENTAUR R/B 3.6 22:29:06 10° NW 22:35:25 51° W 22:35:25 51° W
H-2A R/B 4.5 23:03:08 19° NW 23:03:08 19° NW 23:05:13 10° NW
